Kuchera_Ratio
0.0 0.0 0.0 0.0 0.0 0.0 0.0 0.0 0.0 0.0 0.0 0.0 0.0 0.0 0.0 0.0 0.0 0.0 0.0 0.0 0.0 0.0 0.0 0.0 0.0 0.0 0.0 0.0 0.0 0.0 0.0 0.0 0.0 0.0 0.0 0.0 0.0 0.0 0.0 0.0 0.0 0.0 0.0 0.0 0.0
0.0 0.0 0.0 0.0 0.0 0.0 0.0 0.0 0.0 0.0 0.0 0.0 0.0 0.0 0.0 0.0 0.0 0.0 0.0 0.0 0.0 0.0 0.0 0.0 0.0 0.0 0.0 0.0 0.0 0.0 0.0 0.0 0.0 0.0 0.0 0.0 0.0 0.0 0.0 0.0 0.0 0.0 0.0 0.0 0.0
0.0 0.0 0.0 0.0 0.0 0.0 0.0 0.0 0.0 0.0 0.0 0.0 0.0 0.0 0.0 0.0 0.0 0.0 0.0 0.0 0.0 0.0 0.0 0.0 0.0 0.0 0.0 0.0 0.0 0.0 0.0 0.0 0.0 0.0 0.0 0.0 0.0 0.0 0.0 0.0 0.0 0.0 0.0 0.0 0.0
0.0 0.0 0.0 0.0 0.0 0.0 0.0 0.0 0.0 0.0 0.0 0.0 0.0 0.0 0.0 0.0 0.8 0.0 0.0 0.0 0.0 0.0 0.0 0.0 0.0 0.0 0.0 0.0 0.0 0.0 0.0 0.0 0.0 0.0 0.0 0.0 0.0 0.0 0.0 0.0 0.0 0.0 0.0 0.0 0.0
0.0 0.0 0.0 0.0 0.0 0.0 0.0 0.0 0.0 0.0 0.0 0.0 0.0 0.0 0.0 0.0 0.0 0.0 0.0 0.0 0.0 0.0 0.0 0.0 0.0 0.0 0.0 0.0 0.0 0.0 0.0 0.0 0.0 0.0 0.0 0.0 0.0 0.0 0.0 0.0 0.0 0.0 0.0 0.0 0.0
0.0 0.0 0.0 0.0 0.0 0.0 0.0 0.0 0.0 0.0 0.0 0.0 0.0 0.0 0.0 1.3 0.0 0.0 0.0 0.0 0.0 0.0 0.0 0.0 0.0 0.0 0.0 0.0 0.0 0.0 0.0 0.0 0.0 0.0 0.0 0.0 0.0 0.0 0.0 0.0 0.0 0.0 0.0 0.0 0.0
0.0 0.0 0.0 0.0 0.0 0.0 0.0 0.0 0.0 0.0 0.0 0.0 0.0 0.0 0.0 0.0 0.0 0.0 0.0 0.0 0.0 0.0 0.0 0.0 0.0 0.0 0.0 0.0 0.0 0.0 0.0 0.0 0.0 0.0 0.0 0.0 0.0 0.0 0.0 0.0 0.0 0.0 0.0 0.0 0.0
0.0 0.0 0.0 0.0 0.0 0.0 0.0 0.0 0.0 0.0 0.0 0.0 0.0 0.0 0.0 0.0 0.0 0.0 0.0 0.0 0.0 0.0 0.0 0.0 0.0 0.0 0.0 0.0 0.0 0.0 0.0 2.1 0.0 0.0 0.0 0.0 0.0 0.0 0.0 0.0 0.0 0.0 0.0 0.0 0.0
0.0 0.0 0.0 0.0 0.0 0.0 0.0 0.0 0.0 0.0 0.0 0.0 0.0 0.0 0.0 0.0 0.0 0.0 0.0 0.0 0.0 0.0 0.0 0.0 0.0 0.0 0.0 0.0 2.6 4.8 9.6 6.6 0.1 0.0 0.0 0.0 0.0 0.0 0.0 0.0 0.0 0.0 0.0 0.0 0.0
0.0 0.0 0.0 0.0 0.0 0.0 0.0 0.0 0.0 0.0 0.0 0.0 0.0 0.0 0.0 0.0 0.0 0.0 0.0 0.0 0.0 0.0 0.0 0.0 0.0 0.4 0.1 1.7 12.2 10.1 10.8 7.1 4.7 0.0 0.0 0.1 0.0 0.0 0.0 0.0 0.0 0.0 0.0 0.0 0.0
0.0 0.0 0.0 0.0 0.0 0.0 0.0 0.0 0.0 0.0 0.0 3.5 1.2 0.9 0.0 0.0 0.0 0.0 0.0 0.0 0.0 0.0 3.6 0.0 5.2 8.3 3.8 1.6 0.3 5.4 6.5 6.0 2.8 0.0 0.0 2.1 1.7 0.0 0.0 0.0 0.0 0.0 0.0 0.0 0.0
0.0 0.0 0.0 0.0 0.0 0.0 0.0 0.0 0.0 0.0 6.0 0.0 0.0 0.0 0.0 0.0 0.5 0.0 0.0 0.0 0.0 4.9 0.0 3.9 9.9 3.4 0.0 0.0 0.3 2.5 7.7 7.8 2.1 0.0 0.0 2.6 1.6 0.0 0.0 0.0 0.0 0.0 0.0 0.0 0.0
0.0 0.0 0.0 0.0 0.0 0.0 0.0 0.0 0.0 0.0 7.6 2.9 0.0 0.0 0.0 0.0 0.5 0.0 0.0 0.0 1.7 3.8 4.8 9.5 4.0 0.0 1.6 4.5 5.1 6.0 5.4 8.2 5.3 0.9 0.0 2.5 5.1 3.8 0.5 0.0 0.0 0.0 0.0 0.0 0.0
0.0 0.0 0.0 0.0 0.0 0.0 0.0 0.0 0.0 0.0 14.4 8.6 0.0 0.0 0.0 0.0 1.5 0.0 0.0 0.0 3.0 7.9 6.1 4.9 0.0 2.3 4.9 6.3 3.5 9.7 1.1 1.8 4.2 6.6 13.1 5.5 14.3 6.2 4.3 3.2 0.0 0.0 0.0 0.0 0.0
0.0 0.0 0.0 0.0 0.0 0.0 0.0 0.0 0.0 0.0 20.3 2.2 0.0 0.0 0.0 0.0 0.0 0.0 0.0 0.0 6.2 5.7 5.8 8.6 6.1 7.8 7.3 5.2 0.9 6.2 1.9 4.0 5.4 9.5 10.6 11.1 14.1 7.7 6.0 5.1 2.8 0.7 0.0 0.0 0.0
0.0 0.0 0.0 0.0 0.0 0.0 0.0 0.0 0.0 15.8 20.5 10.6 0.9 4.0 5.3 0.7 0.7 0.0 0.0 0.0 0.2 4.3 2.9 3.5 0.0 0.5 2.7 0.7 0.0 1.7 6.5 8.5 10.1 10.8 15.0 14.2 13.4 11.2 7.9 5.5 4.4 4.1 3.0 2.0 2.2
0.0 0.0 0.0 0.0 0.2 0.0 0.0 1.4 15.2 18.3 8.4 11.0 10.4 5.8 8.5 9.3 5.7 3.3 6.3 7.7 9.4 13.2 13.2 7.9 6.2 1.8 0.0 7.6 2.7 4.5 10.7 16.4 17.1 17.0 18.4 16.0 15.2 8.2 6.8 7.3 6.7 5.9 5.8 5.9 6.1
0.0 0.0 0.0 0.0 0.0 0.0 0.0 10.3 17.5 14.2 15.6 7.5 9.2 8.4 12.4 8.8 7.0 9.6 7.6 10.1 6.4 8.9 13.4 14.3 15.4 8.4 1.5 4.0 9.3 8.6 10.5 15.2 19.6 19.6 17.6 14.3 16.7 10.8 9.9 8.4 6.7 6.9 7.8 7.7 7.9
0.0 0.0 0.0 0.0 0.0 0.0 4.6 15.4 17.0 16.5 10.3 11.6 8.9 13.8 14.3 9.1 9.5 11.0 11.7 10.5 6.8 7.1 12.7 16.5 14.5 8.1 4.1 1.8 1.9 10.9 13.1 9.6 16.0 17.8 17.8 15.5 13.0 10.0 10.5 9.7 8.1 7.6 8.0 8.4 8.0
0.0 0.0 0.0 0.0 0.0 0.0 9.7 15.9 13.6 8.3 7.6 8.3 13.8 12.8 15.1 12.9 13.3 12.1 13.1 8.4 8.4 5.4 5.0 13.0 16.1 11.5 6.7 2.3 2.8 6.5 5.1 14.4 14.8 18.8 19.4 17.7 15.8 13.4 11.2 10.4 9.0 8.5 8.2 8.3 6.0
0.0 3.3 0.0 0.0 0.0 4.7 16.8 16.8 13.2 4.3 5.6 10.3 12.4 12.5 12.9 13.4 12.3 12.7 12.8 8.4 6.7 5.7 6.2 11.5 13.3 13.8 9.3 10.9 12.5 10.4 12.8 13.1 14.3 16.2 18.2 18.6 14.6 11.1 11.4 10.6 10.2 9.5 8.5 5.7 4.6
3.7 10.0 0.0 0.0 11.2 14.3 14.9 15.3 5.7 8.5 4.1 7.6 8.8 10.0 12.9 11.3 13.1 12.9 13.1 10.4 5.2 6.1 11.7 10.7 14.2 17.3 14.6 10.4 8.2 8.0 11.2 12.2 14.8 18.3 17.3 17.1 15.2 10.1 10.3 9.6 9.7 8.7 6.1 5.1 5.2
8.0 7.6 0.0 0.0 16.7 16.7 14.0 13.2 10.9 10.6 8.9 10.4 11.9 9.2 8.8 12.3 14.2 11.6 10.0 5.7 5.3 7.3 10.7 9.9 15.5 18.1 15.3 12.9 9.8 12.3 11.2 12.0 12.4 14.9 16.6 16.6 15.1 9.6 8.5 6.2 7.2 7.6 4.9 4.9 5.8
8.0 12.4 8.4 9.5 13.8 16.5 15.4 15.3 14.1 6.7 8.5 9.1 10.2 8.2 11.5 12.6 9.8 13.2 11.9 7.0 5.9 8.0 3.6 8.3 15.8 16.5 17.9 16.5 14.8 14.9 13.7 13.1 11.9 15.5 16.0 15.1 13.2 8.6 8.6 6.8 6.2 6.9 5.2 6.1 7.2
8.9 13.8 12.8 14.5 14.9 14.8 15.6 15.9 14.4 14.8 9.6 8.1 10.1 10.2 12.4 16.6 15.7 14.3 12.2 11.4 5.9 6.5 10.6 13.2 16.2 16.6 15.7 14.7 15.0 14.6 13.7 13.5 13.1 13.3 15.7 13.2 12.4 11.9 7.2 5.7 6.2 7.2 8.5 8.2 8.3
10.1 11.1 13.3 12.9 14.6 15.7 16.0 16.3 15.7 15.0 13.8 12.7 13.9 11.4 11.3 14.0 14.0 16.0 14.0 13.9 13.7 12.5 13.0 13.4 15.9 16.0 16.9 14.9 15.0 14.9 14.8 14.6 14.0 13.9 13.6 13.9 13.2 9.4 9.5 8.8 9.2 9.4 9.0 8.8 9.5
6.8 7.1 12.3 13.9 15.6 16.3 16.0 16.5 14.5 12.8 12.0 9.3 10.6 12.1 13.1 11.5 9.0 9.9 11.2 13.1 14.7 14.8 14.8 15.3 15.6 16.0 17.5 16.9 15.4 16.8 15.5 14.9 14.6 14.3 13.8 15.0 12.3 12.3 11.7 11.0 11.1 10.8 10.5 11.5 12.0